Regional Weather Roundup
Issued by NWS Upton, NY

Current Version | Previous Version | Graphics & Text | Print | Product List | Glossary Off
Versions: 1 2 3 4 5 6 7 8 9 10 11 12 13 14 15 16 17 18 19 20 21 22 23 24 25 26 27

000
ASUS41 KOKX 211008
RWROKX

REGIONAL WEATHER ROUNDUP
NATIONAL WEATHER SERVICE NEW YORK NY
500 AM EST SAT JAN 21 2017

NOTE: "FAIR" INDICATES FEW OR NO CLOUDS BELOW 12,000 FEET WITH NO
SIGNIFICANT WEATHER AND/OR OBSTRUCTIONS TO VISIBILITY.

NYZ071-072-176-178-NJZ106-104-211100-
NEW YORK CITY METRO AREA

CITY           SKY/WX    TMP DP  RH WIND       PRES   REMARKS
Central Park   CLOUDY    41  41 100 SW8       29.91F FOG
Wall St Helipt CLOUDY    43  40  89 W7        29.91S
LaGuardia APRT CLOUDY    46  41  82 W8        29.89F
Kennedy INTL   CLOUDY    43  43 100 SW9       29.91S FOG
Breezy Point     N/A     39 N/A N/A W5          N/A
Newark/Liberty CLOUDY    42  41  96 SW7       29.90S FOG
Teterboro      CLOUDY    43  41  93 SW6       29.89F FOG
$$

NYZ177-179-078>081-211100-
LONG ISLAND NEW YORK

CITY           SKY/WX    TMP DP  RH WIND       PRES   REMARKS
Jones Beach      N/A     41 N/A N/A W6          N/A
Matinecock PT    N/A     39 N/A N/A SW6         N/A  WCI  35
Farmingdale    CLOUDY    43  41  93 W8        29.89F
MacArthur/ISP  CLOUDY    42  42 100 W7        29.88R
Shirley        CLOUDY    42  42 100 W5        29.89S FOG
Westhampton    CLOUDY    42  40  92 W5        29.90S
Southampton    NOT AVBL
Bridgehampton  NOT AVBL
East Hampton   CLOUDY    42  41  96 CALM      29.88S
Montauk          N/A     43  42  97 CALM      29.89F
$$

NYZ052-065-067-211100-
HUDSON VALLEY

CITY           SKY/WX    TMP DP  RH WIND       PRES   REMARKS
White Plains   CLOUDY    41  39  93 W5        29.86S FOG
Newburgh       NOT AVBL
Montgomery     CLOUDY    39  37  92 SW8       29.86S FOG     WCI  33
Poughkeepsie   CLOUDY    39  38  96 VRB5      29.86F
Albany         CLOUDY    39  35  86 S7        29.84F WCI  34
$$

NJZ001-105-106-008-010-013-015-019>022-104-211100-
NEW JERSEY

CITY           SKY/WX    TMP DP  RH WIND       PRES   REMARKS
Newark/Liberty CLOUDY    42  41  96 SW7       29.90S FOG
Teterboro      CLOUDY    43  41  93 SW6       29.89F FOG
Caldwell       CLOUDY    41  40  96 SW3       29.90S FOG
Somerville     CLOUDY    41  39  93 CALM      29.88F FOG
Linden         CLOUDY    42  40  93 CALM      29.90F FOG
Sussex         CLOUDY    38  38 100 SW3       29.88S FOG
Andover          N/A     38  38 100 CALM      29.88F
Trenton        FOG       41  41 100 CALM      29.90F VSB 1
Millville      CLOUDY    43  43 100 CALM      29.92F FOG
Atlantic City  CLOUDY    44  41  89 W3        29.91F FOG
Wrightstown    CLOUDY    42  40  96 SW3       29.88F FOG
Toms River     CLOUDY    43  42  97 W3        29.92S FOG
Belmar         CLOUDY    42  42 100 W6        29.91S FOG
$$

PAZ047>061-062-071-211100-
EASTERN PENNSYLVANIA

CITY           SKY/WX    TMP DP  RH WIND       PRES   REMARKS
Philadelphia   CLOUDY    42  41  96 CALM      29.92F FOG
Allentown      FOG       39  37  92 W3        29.89F VSB 1/2
Scranton       FOG       39  39 100 SW5       29.86F VSB 1/2
$$

CTZ002-004>006-009-010-012-RIZ004-006-007-MAZ004-011-015-211100-
SOUTHERN NEW ENGLAND
 IN CT

CITY           SKY/WX    TMP DP  RH WIND       PRES   REMARKS
Bradley INTL   FOG       37  37 100 S3        29.86S VSB 1/2
Hartford       CLOUDY    38  37  97 CALM      29.87F FOG
Danbury        CLOUDY    39  38  96 W6        29.87S FOG     WCI  35
Wtrbury/Oxford CLOUDY    37  34  87 CALM      29.87S VSB<1/4
Bridgeport     CLOUDY    41  38  89 SW5       29.88S FOG
Meriden        FOG       40  37  89 CALM      29.87F VSB 1/2
New Haven      FOG       39  38  96 CALM      29.87F VSB 3/4
Chester        FOG       41  39  93 VRB5G12   29.86F VSB 1/4
Groton         CLOUDY    42  40  92 SW5       29.87F FOG
Wilimantic     CLOUDY    38  37  97 CALM      29.87F FOG

 IN RI

CITY           SKY/WX    TMP DP  RH WIND       PRES   REMARKS
Providence     CLOUDY    40  38  93 S3        29.87F
Block Island   NOT AVBL
Westerly       CLOUDY    43  39  86 SW5       29.87F FOG
 IN MA

CITY           SKY/WX    TMP DP  RH WIND       PRES   REMARKS
Boston         CLOUDY    38  36  92 S5        29.88F WCI  34
Worcester      FOG       34  33  96 SW5       29.82F VSB 1/4 WCI  30
Westfield      CLOUDY    36  36 100 S6        29.85F FOG     WCI  31
Provincetown   CLOUDY    40  36  86 S3        29.89F
Nantucket      CLOUDY    42  37  82 SE5       29.89F
$$

ANZ330-335-338-340-345-350-353-355-211100-
COASTAL MARINE OBSERVATIONS


STATION/POSITION TIME  SKY/WX   TEMP    WIND        PRES    VSBY  WAVE
                                AIR SEA DIR/SP/G                  HT/PER
                 (UTC)          (F)     (DEG/KT/KT) (MB)    (MI)  (FT/S)
NY HARB ENTRANCE 0850            44 43  240/  6/  6 1012.4          3/12
20 S FIRE ISLAND 0850            45 45  250/  4/  6 1012.2          3/11
GREAT SOUTH BAY  NOT AVBL
23 SSW MONTAUK P 0850            46 47  240/ 12/ 14 1012.7          3/ 8
15 E BARNEGAT LI 0930               47                N/A           4/12
HUDSON CANYON    0850            51 51              1012.6          4/11
KINGS POINT      0936            43 39              1012.1
EXECUTION ROCKS  0945            42     240/  8/ 12   N/A
CENTRAL LI SOUND 0930            40      CALM  /  2   N/A           0
EASTERN LI SOUND NOT AVBL
ROBBINS REEF     0936            42     270/  6/  7 1012.7
$$


>>>>>>>>>>>>>>>>>>>>>>>>>>>> KEY <<<<<<<<<<<<<<<<<<<<<<<<<<<
>                                                          <
>     SKY/WX - Sky Condition/Present Weather               <
>     TMP    - Temperature in Fahrenheit                   <
>     DP     - Dew Point in Fahrenheit                     <
>     RH     - Relative Humidity in Percent                <
>     WIND   - Direction (from) and Speed in MPH           <
>     PRES   - Mean Sea Level Pressure (inches of Hg)      <
>     WCI    - Wind Chill Index                            <
>     VSB    - VISIBILITY IN MILES                         <
>     HX     - HEAT INDEX                                  <
>     TC     - TEMPERATURE IN CELSIUS                      <
>     VRB    - VARIABLE WIND DIRECTION                     <
>                                                          <
>>>>>>>>>>>>>>>>>>>>>>>>>>>> KEY <<<<<<<<<<<<<<<<<<<<<<<<<<<




USA.gov is the U.S. government's official web portal to all federal, state and local government web resources and services.